Wetbulb
28.92 28.62 28.82 29.61 30.04 29.74 28.20 26.88 26.49 26.75 27.88 28.36 30.47 32.45 34.49 35.56 37.22 37.88 38.63 39.55 39.71 39.95 40.54 40.22 40.43 41.38 40.28 39.84 39.41 39.11 38.45 38.05 35.44 34.61 35.87 35.31 33.28 33.69 33.94 34.55 33.63 32.32 31.98
26.16 25.76 25.49 25.89 26.71 26.83 27.24 26.98 26.48 25.79 26.64 27.59 28.71 30.17 31.54 32.14 33.51 35.27 36.22 37.33 37.57 38.03 38.94 39.45 39.37 40.24 39.72 39.78 39.09 38.17 38.03 38.06 35.64 32.55 32.52 32.36 32.54 32.39 32.41 31.67 30.74 29.70 29.49
23.49 22.75 22.81 23.04 23.88 24.11 23.84 24.83 25.67 25.25 25.91 26.73 26.43 26.94 27.78 30.26 31.01 32.69 34.51 35.49 36.27 36.63 37.01 37.89 38.87 39.06 38.44 38.42 38.48 37.98 37.60 37.18 35.55 33.06 31.76 32.25 31.69 31.09 30.31 30.24 29.81 28.95 29.62
21.40 20.08 19.44 19.72 20.25 21.18 21.30 20.77 22.03 23.16 24.64 24.74 25.89 25.85 25.78 27.67 31.36 30.81 32.83 33.26 33.88 34.90 35.79 36.23 36.89 38.17 38.39 38.04 37.72 37.39 37.11 34.45 33.78 32.83 31.92 31.26 31.53 31.10 30.77 29.52 28.50 28.82 28.95
17.59 15.77 14.16 15.81 16.64 16.20 16.72 17.72 20.07 20.63 21.59 21.30 23.18 25.49 26.11 26.67 30.13 31.55 30.83 31.71 31.86 32.12 33.59 34.50 35.45 33.74 35.24 38.01 37.60 36.53 36.38 33.37 32.77 32.36 31.63 31.08 30.67 29.65 29.11 29.93 28.86 28.44 28.01
12.39 9.70 11.20 12.11 12.28 11.97 12.80 14.89 16.64 17.63 19.96 20.04 21.19 22.35 24.86 27.18 30.90 33.49 33.28 29.96 31.02 31.43 31.75 33.07 34.20 33.64 35.29 37.39 38.58 39.05 37.71 34.44 33.08 32.28 31.89 31.09 30.96 30.23 30.37 29.60 28.97 27.30 27.13
7.32 7.17 8.94 9.74 9.84 10.18 10.59 11.24 12.99 15.42 17.41 18.86 21.14 22.12 22.58 25.06 30.90 32.27 33.55 29.62 29.26 29.84 31.35 32.19 32.63 33.58 33.52 34.38 36.11 38.37 37.48 38.00 36.78 34.37 32.37 32.10 30.59 30.44 30.04 29.74 29.60 29.09 28.59
4.20 4.04 5.42 8.66 8.42 8.65 8.78 9.47 10.96 14.58 15.59 18.37 19.97 21.74 22.65 24.64 30.00 31.41 32.27 29.05 28.04 28.43 30.52 31.58 32.04 32.51 33.18 33.12 33.49 33.85 33.98 33.81 33.89 33.72 33.25 32.94 32.22 31.48 31.25 30.58 30.36 29.42 28.68
4.10 4.00 4.72 4.96 6.76 6.69 6.69 8.16 10.62 13.35 15.15 16.63 20.51 20.95 21.70 22.61 28.44 30.31 30.56 28.75 29.18 27.00 28.99 31.10 31.47 32.43 34.89 36.02 33.12 32.18 32.15 31.89 35.20 35.69 35.57 35.47 35.75 34.80 31.87 29.82 27.87 28.35 26.99
5.62 7.16 6.91 3.99 5.44 6.00 7.26 9.04 11.38 13.13 15.54 17.96 18.61 19.88 20.41 21.68 26.65 29.71 30.26 28.64 28.97 27.28 24.37 27.16 31.21 32.70 34.83 36.73 32.42 31.94 31.31 31.07 30.92 30.23 29.49 30.25 30.54 32.46 33.58 30.64 30.13 27.92 27.01
7.33 7.72 6.99 6.62 6.89 8.27 9.99 11.32 12.14 12.48 14.49 13.61 16.40 19.07 18.81 20.19 22.30 29.70 31.13 26.44 26.53 28.22 26.17 24.67 28.42 32.40 34.37 36.47 36.89 32.29 32.45 32.06 32.52 28.94 27.86 27.02 27.54 27.47 27.62 28.12 28.49 29.19 27.65
6.74 5.97 4.95 5.34 7.47 9.65 9.21 10.22 11.66 12.49 13.15 13.67 15.27 17.56 20.28 20.94 24.89 27.60 29.61 30.42 31.09 26.89 25.69 25.63 24.82 32.35 32.98 35.47 34.45 36.36 36.13 31.68 29.32 27.97 27.21 23.21 22.85 23.32 24.19 25.71 26.17 26.42 26.95
3.21 1.97 3.15 5.02 7.25 7.46 7.73 8.25 8.67 10.52 10.35 11.04 12.76 13.10 15.12 18.80 20.19 25.56 27.42 29.69 29.42 27.54 27.17 28.67 31.05 30.42 31.79 32.85 33.72 35.07 32.03 30.29 28.59 27.28 26.22 22.50 22.11 23.99 24.53 24.69 25.20 25.21 24.45
-0.37 1.09 3.46 4.23 4.32 5.55 6.53 7.25 6.98 7.25 7.99 9.46 10.06 11.21 12.87 15.26 17.55 20.29 23.12 25.13 26.35 25.92 26.84 24.76 27.89 28.32 29.78 30.34 30.14 31.49 30.16 30.13 28.88 27.99 26.12 23.70 21.45 21.15 23.83 24.58 24.35 24.22 24.80
-0.50 1.04 2.45 3.46 2.50 3.37 4.63 4.93 6.91 8.26 10.08 10.21 11.46 13.13 12.74 12.58 16.66 21.85 23.17 23.38 26.71 27.86 20.97 22.30 17.44 19.66 23.34 21.08 23.67 29.01 28.57 28.87 28.51 26.68 24.64 23.10 21.57 20.24 19.60 22.97 24.20 23.60 23.57
-2.30 0.46 0.54 0.77 1.20 2.01 1.93 2.34 8.18 10.62 12.86 14.33 15.66 15.50 15.77 18.52 20.58 21.87 23.52 24.93 27.31 30.49 24.96 23.73 19.19 20.30 18.21 22.50 20.43 24.16 28.00 28.42 27.67 26.03 21.65 19.88 20.08 18.01 19.30 21.20 22.45 23.20 22.88
-7.51 -2.76 -0.89 -0.27 -0.27 -0.02 0.24 -0.11 -1.21 3.35 9.61 10.96 12.47 13.57 14.66 15.70 17.61 19.27 21.07 23.06 25.19 26.35 25.10 23.69 23.72 21.17 13.03 20.43 22.86 24.40 23.10 26.97 27.16 26.77 23.87 19.06 19.23 18.01 17.75 21.57 22.48 22.95 22.08
-10.82 -3.96 -2.72 -1.10 -1.09 -0.57 -0.13 -0.02 -0.11 -1.48 -2.21 -0.43 5.98 9.47 12.31 13.56 14.60 16.42 18.53 19.92 15.65 16.70 21.09 15.68 23.02 23.44 10.52 11.77 17.00 23.15 26.37 26.75 26.93 26.10 22.09 21.49 19.78 17.95 17.62 17.27 16.51 21.52 22.25
-7.39 -4.02 -4.36 -1.68 -0.73 -0.56 -0.86 -1.04 -0.92 -1.35 -1.83 -1.60 -0.57 3.34 4.28 9.50 11.38 12.76 13.97 7.33 7.61 10.88 15.14 19.18 15.05 14.47 8.41 8.59 9.99 16.01 23.30 27.24 22.10 26.85 25.44 21.19 20.85 19.30 16.84 18.00 17.45 16.55 17.28
-13.22 -5.85 -2.60 -3.85 -2.72 -2.74 -2.30 -2.54 -2.36 -2.80 -2.84 -2.72 -2.22 -1.70 -0.72 -1.78 -4.88 -3.80 -4.68 -5.06 0.18 4.18 12.38 15.93 17.40 11.03 8.44 7.42 6.28 6.70 9.86 15.44 26.95 26.65 25.61 22.59 21.33 21.40 19.33 18.59 19.04 16.10 14.70
-13.69 -9.16 -6.47 -9.57 -8.76 -7.33 -5.46 -4.68 -3.41 -2.87 -2.89 -2.67 -1.93 0.42 9.80 6.84 4.02 3.50 1.46 -2.38 0.43 6.14 9.14 13.59 14.62 14.38 6.28 0.76 1.30 4.71 11.09 17.22 19.41 27.50 26.19 25.03 21.43 19.98 22.33 20.44 18.24 14.49 10.55
-15.23 -10.70 -14.50 -14.27 -9.29 -8.50 -7.49 -7.53 -4.35 -3.67 -2.76 -2.37 -1.14 0.24 8.89 1.37 -0.86 -1.81 -1.33 -4.29 -2.85 -1.57 4.31 7.89 9.45 11.42 13.91 12.89 3.29 4.07 5.26 8.83 9.60 14.68 27.10 25.86 24.32 23.62 22.55 21.82 20.31 15.89 10.92
-15.76 -13.47 -13.45 -13.61 -12.80 -9.74 -8.79 -10.14 -8.62 -6.20 -4.89 -3.49 -2.24 -1.31 -0.48 -0.57 -2.54 -3.12 -3.17 -1.09 -4.62 -2.41 0.64 2.88 3.54 8.37 9.66 9.99 5.84 5.42 7.02 8.54 13.06 14.00 27.17 26.30 25.65 20.92 23.04 20.52 21.46 17.76 15.47
-19.45 -15.61 -13.20 -12.59 -12.94 -10.74 -11.48 -7.61 -7.58 -6.08 -5.05 -4.14 -3.31 -2.45 -1.63 -0.92 -0.56 -1.03 -1.53 -1.27 -2.73 -4.20 -2.11 1.51 1.45 1.04 5.74 6.79 9.06 5.65 8.50 13.43 19.13 27.48 28.29 27.63 26.43 25.85 22.19 19.95 20.92 21.34 19.92
-18.55 -16.35 -15.53 -13.32 -13.31 -10.73 -9.62 -9.13 -8.45 -6.80 -5.73 -3.57 -1.74 -1.34 -1.24 -1.55 -1.26 -0.20 -1.51 -1.54 -0.91 -3.02 -2.47 1.40 3.60 0.84 2.43 3.82 7.69 10.19 8.66 11.84 8.24 22.65 27.59 28.65 27.39 26.54 23.98 20.36 22.10 21.66 17.86
-13.87 -15.08 -14.41 -14.49 -13.71 -11.18 -11.90 -8.20 -6.31 -5.47 -3.95 -1.74 -0.12 0.49 0.59 1.01 0.35 -0.66 0.04 -1.62 -1.65 -0.52 -2.03 1.50 3.73 2.58 1.13 3.57 6.42 11.71 12.52 15.57 12.53 14.91 22.52 28.37 27.82 26.01 24.18 20.33 22.38 21.35 18.73
MSLP
1030.22 1030.05 1029.46 1029.16 1028.45 1028.06 1027.66 1027.38 1026.97 1026.55 1026.00 1025.38 1024.26 1023.51 1023.10 1022.45 1021.88 1021.45 1021.01 1020.74 1020.35 1020.10 1020.15 1020.28 1020.16 1020.29 1020.47 1020.45 1020.50 1020.85 1020.98 1021.02 1021.56 1022.13 1022.37 1022.61 1022.85 1023.09 1023.24 1023.41 1023.76 1023.94 1023.89
1031.20 1030.82 1030.52 1029.96 1029.41 1029.06 1028.49 1028.06 1027.43 1026.67 1026.09 1025.54 1024.99 1024.40 1024.04 1023.15 1022.50 1021.99 1021.61 1021.21 1020.95 1020.74 1020.47 1020.29 1020.22 1020.35 1020.57 1020.56 1020.75 1020.86 1020.83 1021.00 1021.31 1021.94 1022.56 1022.80 1022.95 1023.16 1023.26 1023.38 1023.67 1023.83 1023.96
1031.82 1031.53 1031.22 1030.99 1030.55 1030.17 1029.57 1028.90 1028.02 1027.43 1026.70 1025.94 1025.66 1025.24 1024.63 1024.09 1023.39 1022.83 1022.31 1021.80 1021.56 1021.29 1021.07 1020.71 1020.51 1020.51 1020.61 1020.57 1020.82 1020.80 1020.99 1021.05 1021.40 1021.87 1022.44 1022.70 1022.89 1023.22 1023.52 1023.68 1023.63 1023.73 1023.86
1032.97 1032.70 1032.58 1032.20 1031.68 1031.18 1030.49 1029.95 1029.15 1028.32 1027.36 1026.85 1026.22 1025.77 1025.11 1024.59 1024.04 1023.33 1022.76 1022.42 1022.01 1021.60 1021.69 1021.42 1021.15 1020.84 1020.56 1020.44 1020.65 1020.87 1021.00 1021.11 1021.51 1021.82 1022.29 1022.64 1022.71 1023.10 1023.44 1023.48 1023.68 1023.67 1023.92
1034.25 1033.99 1033.75 1033.32 1032.67 1032.11 1031.31 1030.58 1029.73 1029.05 1028.10 1027.70 1026.88 1026.10 1025.65 1024.78 1024.24 1023.74 1023.30 1022.70 1022.41 1022.00 1021.92 1021.58 1021.39 1021.21 1020.92 1020.59 1020.54 1020.66 1020.95 1021.33 1021.62 1021.80 1022.31 1022.63 1022.71 1023.05 1023.45 1023.22 1023.49 1023.51 1023.92
1035.18 1034.96 1034.47 1033.86 1033.30 1032.79 1032.07 1031.22 1030.43 1029.60 1028.67 1028.17 1027.28 1026.50 1025.78 1025.26 1024.51 1023.99 1023.54 1023.22 1022.88 1022.51 1022.05 1021.59 1021.43 1021.19 1020.99 1020.83 1020.80 1020.72 1020.86 1021.17 1021.48 1021.94 1022.24 1022.43 1022.42 1022.67 1023.05 1023.20 1023.20 1023.48 1023.66
1035.84 1035.55 1035.03 1034.50 1033.97 1033.39 1032.74 1031.95 1030.98 1030.13 1029.47 1028.72 1027.77 1026.95 1026.13 1025.48 1024.58 1024.20 1023.82 1023.58 1023.28 1023.12 1022.68 1021.99 1021.68 1021.42 1021.17 1021.18 1020.87 1020.79 1021.02 1021.09 1021.35 1021.64 1021.90 1022.17 1022.19 1022.32 1022.71 1023.05 1022.95 1023.25 1023.54
1036.14 1035.84 1035.43 1034.97 1034.47 1033.81 1033.11 1032.43 1031.62 1030.72 1029.97 1029.05 1028.26 1027.42 1026.62 1025.74 1024.88 1024.32 1024.05 1023.84 1023.56 1023.46 1023.10 1022.56 1022.17 1021.78 1021.57 1021.47 1021.20 1021.04 1021.23 1021.35 1021.46 1021.71 1021.81 1021.91 1021.92 1022.12 1022.44 1022.48 1022.67 1023.16 1023.50
1036.29 1035.84 1035.43 1035.09 1034.70 1034.15 1033.54 1032.75 1031.92 1031.00 1030.03 1029.21 1028.66 1027.69 1026.87 1026.05 1025.19 1024.56 1024.17 1023.86 1023.75 1023.63 1023.37 1023.01 1022.48 1022.00 1021.66 1021.53 1021.46 1021.55 1021.54 1021.62 1021.64 1021.68 1021.74 1021.78 1021.54 1021.63 1022.17 1022.49 1022.90 1023.13 1023.61
1036.36 1035.88 1035.48 1035.14 1034.75 1034.19 1033.57 1032.86 1032.07 1031.37 1030.37 1029.53 1028.50 1027.88 1027.10 1026.39 1025.62 1024.81 1024.27 1023.97 1023.78 1023.64 1023.35 1023.13 1022.67 1022.28 1021.93 1021.76 1021.62 1021.73 1021.82 1021.68 1021.86 1022.12 1022.25 1022.16 1022.05 1021.94 1022.11 1022.43 1022.89 1023.09 1023.38
1036.51 1036.01 1035.58 1035.20 1034.69 1034.03 1033.33 1032.71 1031.95 1031.20 1030.38 1029.64 1028.73 1027.94 1027.30 1026.63 1025.98 1025.03 1024.37 1023.88 1023.80 1023.69 1023.58 1023.28 1022.97 1022.43 1021.86 1021.58 1021.46 1021.71 1021.65 1021.74 1021.98 1022.37 1022.78 1022.83 1022.85 1022.98 1022.97 1022.97 1022.97 1023.02 1023.25
1036.55 1036.04 1035.52 1035.05 1034.57 1033.94 1033.36 1032.56 1031.85 1031.14 1030.36 1029.62 1028.86 1027.86 1027.39 1026.74 1026.04 1025.48 1024.72 1024.09 1023.71 1023.64 1023.58 1023.28 1023.18 1022.52 1022.00 1021.67 1021.79 1021.62 1021.55 1021.83 1022.23 1022.64 1023.03 1023.32 1023.39 1023.59 1023.65 1023.50 1023.44 1023.48 1023.44
1036.74 1036.16 1035.59 1035.03 1034.48 1034.01 1033.25 1032.60 1032.05 1031.39 1030.71 1029.94 1029.24 1028.46 1027.79 1027.16 1026.67 1025.81 1025.12 1024.45 1024.03 1023.72 1023.48 1023.17 1022.80 1022.64 1022.28 1022.05 1022.03 1021.71 1021.60 1022.11 1022.48 1022.89 1023.21 1023.48 1023.68 1023.80 1023.90 1023.95 1023.99 1024.10 1024.27
1036.89 1036.21 1035.55 1034.97 1034.47 1034.00 1033.56 1032.99 1032.37 1031.71 1030.99 1030.28 1029.60 1028.91 1028.25 1027.55 1026.93 1026.26 1025.48 1024.77 1024.22 1023.79 1023.64 1023.45 1023.16 1023.02 1022.70 1022.50 1022.21 1021.77 1021.78 1022.06 1022.54 1022.84 1023.27 1023.70 1024.02 1023.97 1024.02 1024.14 1024.19 1024.42 1024.43
1037.01 1036.37 1035.71 1035.14 1034.66 1034.11 1033.69 1033.20 1032.53 1031.98 1031.22 1030.08 1029.52 1028.98 1028.31 1027.62 1027.10 1026.40 1025.78 1025.03 1024.35 1023.73 1023.44 1023.62 1023.55 1023.30 1023.18 1023.15 1022.78 1022.46 1022.40 1022.43 1022.58 1022.99 1023.21 1023.67 1024.01 1024.11 1024.30 1024.29 1024.56 1024.53 1024.50
1037.08 1036.28 1035.83 1035.35 1034.85 1034.35 1033.78 1032.97 1032.53 1031.83 1030.96 1030.22 1029.47 1028.77 1028.20 1027.53 1026.76 1026.18 1025.56 1024.97 1024.18 1023.62 1023.49 1023.71 1023.82 1023.91 1023.90 1023.89 1023.50 1022.96 1022.50 1022.50 1022.57 1022.97 1023.27 1023.57 1024.08 1024.29 1024.53 1024.45 1024.46 1024.60 1024.80
1037.35 1036.56 1035.94 1035.51 1035.10 1034.60 1033.97 1033.37 1032.41 1031.42 1031.21 1030.62 1029.96 1029.25 1028.61 1027.92 1027.11 1026.41 1025.69 1024.94 1024.17 1023.76 1023.53 1023.37 1023.70 1023.97 1024.16 1024.06 1023.82 1023.58 1023.20 1022.68 1022.62 1022.85 1023.30 1023.58 1023.94 1024.27 1024.51 1024.62 1024.71 1024.78 1025.07
1036.93 1036.46 1036.04 1035.55 1035.14 1034.62 1034.10 1033.59 1033.01 1032.19 1031.24 1030.54 1030.24 1029.69 1028.79 1028.06 1027.41 1026.59 1025.78 1024.92 1024.67 1024.22 1023.94 1023.35 1023.37 1023.68 1024.16 1024.23 1023.97 1023.67 1023.27 1023.10 1022.88 1023.01 1023.21 1023.43 1023.69 1024.06 1024.54 1024.75 1024.88 1025.00 1025.19
1036.82 1036.24 1035.72 1035.33 1034.96 1034.58 1034.11 1033.56 1033.03 1032.44 1031.74 1030.85 1030.02 1029.43 1029.37 1028.55 1027.73 1026.97 1026.38 1026.01 1025.70 1025.08 1024.39 1023.82 1023.19 1023.14 1023.57 1023.73 1023.71 1023.64 1023.34 1023.10 1022.96 1022.91 1023.04 1023.24 1023.45 1023.92 1024.41 1024.68 1024.84 1025.05 1025.26
1036.48 1036.05 1035.50 1035.14 1034.74 1034.36 1033.99 1033.50 1032.93 1032.35 1031.63 1030.93 1030.25 1029.69 1029.25 1028.92 1027.98 1027.40 1026.95 1026.58 1026.24 1025.66 1024.90 1024.09 1023.76 1023.37 1022.89 1023.19 1023.50 1023.46 1023.39 1023.22 1022.88 1022.86 1022.89 1023.11 1023.34 1023.64 1024.01 1024.37 1024.68 1025.02 1025.40
1036.06 1035.64 1035.22 1034.92 1034.68 1034.24 1033.87 1033.46 1032.83 1032.19 1031.51 1030.71 1029.87 1029.22 1028.53 1027.81 1027.65 1027.28 1027.08 1026.87 1026.56 1026.01 1025.35 1024.50 1023.91 1023.55 1023.25 1023.34 1023.34 1023.34 1023.36 1023.19 1023.00 1022.76 1022.72 1022.85 1023.11 1023.40 1023.48 1023.80 1024.30 1024.78 1025.51
1035.67 1035.28 1034.96 1034.78 1034.30 1033.91 1033.42 1032.94 1032.47 1031.92 1031.20 1030.41 1029.39 1028.65 1027.99 1027.94 1027.66 1027.43 1027.11 1026.77 1026.57 1026.14 1025.35 1024.83 1024.35 1023.95 1023.51 1023.26 1023.35 1023.33 1023.19 1023.04 1022.83 1022.76 1022.51 1022.52 1022.82 1023.02 1023.19 1023.57 1024.03 1024.66 1025.40
1035.16 1034.90 1034.63 1034.31 1033.96 1033.52 1033.10 1032.49 1032.06 1031.49 1030.78 1029.97 1029.17 1028.35 1027.68 1027.30 1027.08 1026.84 1026.63 1026.34 1026.18 1025.71 1025.07 1024.66 1024.37 1023.90 1023.57 1023.31 1023.18 1023.11 1023.07 1022.69 1022.63 1022.72 1022.21 1022.21 1022.43 1022.73 1023.02 1023.47 1023.87 1024.52 1025.17
1034.59 1034.43 1034.22 1033.79 1033.43 1033.02 1032.70 1032.14 1031.41 1030.78 1030.21 1029.49 1028.71 1028.03 1027.28 1026.74 1026.42 1026.02 1025.75 1025.52 1025.26 1025.06 1024.61 1024.15 1023.93 1023.93 1023.44 1023.13 1022.74 1022.55 1022.46 1022.24 1022.01 1021.82 1021.55 1021.92 1022.18 1022.50 1022.85 1023.20 1023.57 1024.03 1024.67
1033.81 1033.72 1033.56 1033.21 1032.93 1032.41 1031.93 1031.39 1030.83 1030.19 1029.58 1028.88 1028.05 1027.44 1026.72 1026.13 1025.72 1025.27 1024.87 1024.65 1024.39 1024.25 1023.92 1023.45 1023.11 1023.13 1022.99 1022.75 1022.42 1022.10 1022.04 1021.94 1021.99 1021.86 1021.66 1021.55 1021.84 1022.18 1022.53 1022.89 1023.33 1023.81 1024.49
1032.85 1032.72 1032.49 1032.28 1032.12 1031.68 1031.35 1030.74 1030.10 1029.42 1028.78 1028.07 1027.37 1026.73 1026.15 1025.40 1024.84 1024.45 1024.09 1023.83 1023.56 1023.25 1023.12 1022.73 1022.32 1022.27 1022.28 1022.13 1021.90 1021.62 1021.52 1021.55 1021.58 1021.64 1021.70 1021.47 1021.56 1021.92 1022.26 1022.63 1023.09 1023.56 1024.11
Wind_Speed
11 11 9 9 8 8 7 8 8 8 9 11 10 9 10 10 10 8 7 7 5 5 3 3 2 1 2 1 1 2 3 2 2 1 1 1 2 3 3 3 2 2 1
9 10 11 11 11 11 10 10 9 9 9 10 10 9 9 9 9 10 8 7 7 6 5 3 2 0 2 2 1 2 2 2 3 2 1 1 0 1 2 3 1 1 0
11 12 12 13 12 12 12 13 11 10 10 9 9 9 9 8 8 8 8 7 7 6 5 5 3 1 3 3 3 2 1 2 2 2 2 1 1 1 1 1 1 0 1
11 11 12 13 13 12 11 11 11 10 9 10 9 8 8 7 6 7 8 7 7 6 5 4 4 4 1 2 3 3 2 2 2 2 1 1 1 1 1 1 1 1 1
11 11 11 11 11 11 12 11 11 11 9 8 9 8 7 6 7 8 7 8 8 6 5 5 4 5 5 2 2 3 4 2 1 2 1 1 1 1 2 1 1 1 2
8 8 8 10 10 11 12 12 10 11 11 10 9 8 10 6 14 16 11 6 7 7 7 6 5 5 7 6 1 3 5 4 3 2 1 2 2 2 2 2 1 1 1
6 7 9 9 10 11 11 11 11 11 11 10 10 9 9 9 17 17 14 5 5 5 6 6 6 4 5 5 5 1 3 4 4 4 2 2 1 3 3 3 2 2 1
5 5 6 8 9 10 11 11 11 9 10 10 11 10 9 8 17 17 15 5 4 6 7 6 6 6 5 4 4 2 3 3 3 2 2 2 3 3 4 3 4 3 1
6 6 5 5 9 9 10 10 10 11 10 9 9 11 10 10 17 17 14 5 5 4 4 6 5 6 10 8 3 1 2 3 3 4 6 6 2 3 5 3 2 2 1
8 10 7 5 6 9 8 9 8 8 10 9 11 8 10 10 16 16 12 4 7 5 4 5 10 9 12 10 1 2 2 2 3 2 3 5 7 6 6 2 3 2 2
10 10 10 9 10 9 9 8 9 9 9 7 9 8 7 6 9 17 15 2 3 5 4 4 3 13 13 10 8 2 2 3 5 4 2 3 4 4 3 4 3 2 2
9 10 10 9 8 8 11 9 9 8 8 8 8 8 5 5 13 15 18 14 10 1 4 2 4 13 12 10 6 6 4 5 3 3 2 2 2 2 2 3 4 4 5
9 9 10 10 9 10 10 10 8 8 7 7 7 7 8 7 8 18 18 16 13 6 2 6 11 12 12 8 8 9 6 3 3 2 2 1 1 2 3 3 4 5 6
8 9 9 9 10 9 8 8 7 7 7 7 7 7 8 8 7 7 8 8 10 7 7 4 6 8 8 7 3 5 1 3 2 2 2 2 1 1 1 1 2 1 1
6 8 8 7 8 8 8 7 8 9 9 9 7 8 8 8 8 17 15 10 9 9 4 2 3 3 3 4 3 2 1 2 2 2 2 3 2 2 1 1 1 1 2
7 6 6 6 7 7 7 8 12 15 18 19 19 15 8 17 21 20 20 20 21 21 2 2 3 3 2 3 4 4 1 1 1 2 2 2 2 2 2 1 1 1 2
4 6 5 6 6 7 7 7 10 10 16 16 17 18 19 19 20 21 21 21 21 18 8 3 5 4 2 2 2 3 3 2 1 2 2 2 3 1 2 1 1 1 1
3 7 4 5 5 6 6 7 7 8 10 9 12 17 18 19 19 19 19 17 8 6 7 3 6 5 3 3 1 1 2 3 1 1 2 3 3 2 2 2 2 3 2
4 3 3 4 5 6 6 6 6 7 8 9 9 12 9 19 20 16 15 5 5 6 6 8 4 4 3 3 3 2 3 3 2 1 1 2 3 3 2 2 3 4 3
3 7 5 3 5 5 5 6 6 7 8 7 8 8 8 6 4 4 3 3 4 5 6 6 6 3 3 4 3 3 2 2 1 1 2 3 3 3 3 3 3 2 2
3 4 4 3 4 4 5 6 6 6 7 8 9 8 20 11 7 7 4 2 3 6 7 7 5 4 2 2 3 3 2 2 3 3 2 2 3 2 3 3 3 3 3
3 4 2 3 4 4 5 4 6 6 7 8 9 9 20 7 7 6 6 5 5 5 6 6 6 5 5 3 3 3 3 3 2 3 2 2 3 2 3 3 3 2 3
3 4 4 3 4 5 5 5 5 6 7 8 9 9 7 6 6 6 6 7 5 5 6 5 4 6 4 4 3 3 4 4 4 3 2 2 3 3 3 2 3 2 3
3 4 5 5 4 5 5 6 5 7 7 8 8 8 8 7 8 9 7 6 5 5 5 6 4 5 5 5 4 3 3 4 3 4 4 3 3 4 3 2 3 4 4
4 5 5 5 5 6 6 6 5 6 6 7 8 8 8 7 8 8 7 6 6 5 6 7 6 5 8 9 8 7 5 6 3 5 4 3 4 6 4 3 3 3 4
5 5 5 4 5 6 5 7 7 6 7 7 7 8 8 8 8 8 8 6 6 7 6 6 7 8 8 7 8 9 7 7 5 5 4 3 3 3 4 4 7 4 6
Wind_Direction
2 350 359 351 355 349 357 351 350 342 345 343 353 3 4 1 3 9 9 6 14 358 347 291 282 179 177 164 120 169 191 159 149 153 88 125 137 158 132 124 131 126 41
4 5 5 5 5 356 354 343 344 346 343 348 347 357 354 358 359 6 6 5 8 7 359 349 319 151 220 172 193 183 180 140 122 157 135 120 106 145 161 152 164 131 200
15 13 11 7 4 2 355 346 343 341 342 346 351 352 354 351 349 358 2 6 3 11 356 354 344 214 214 182 180 172 151 127 105 131 151 148 132 145 130 158 181 260 268
13 18 9 360 357 354 351 348 343 338 344 342 342 335 344 340 344 350 358 4 3 9 354 0 356 348 321 193 180 188 164 121 136 119 136 179 143 122 150 212 255 189 280
9 9 360 349 350 347 349 348 344 343 344 332 330 338 333 346 350 354 355 357 0 360 355 7 4 349 335 332 162 160 154 131 127 125 169 175 159 162 229 178 222 103 272
3 354 347 354 348 346 342 342 343 342 345 337 339 336 339 343 348 350 0 359 355 356 350 356 359 8 358 356 291 178 171 164 166 153 193 216 191 176 178 197 162 149 316
352 342 348 347 346 343 336 336 343 341 335 335 335 339 335 329 344 348 351 352 354 347 347 354 353 355 6 346 356 55 157 164 138 162 177 211 222 199 164 185 168 158 212
333 330 334 343 341 336 336 336 332 332 330 330 326 329 328 322 336 341 341 339 351 9 354 344 351 351 355 344 338 102 110 89 91 119 168 244 226 245 190 177 169 121 79
336 328 324 329 335 331 329 325 322 325 326 327 322 321 328 324 330 332 336 333 356 337 341 346 350 354 344 348 343 299 144 111 61 103 83 47 40 142 156 111 96 128 149
337 330 323 319 319 317 309 313 312 307 311 318 318 316 311 316 328 331 330 322 334 332 327 339 360 355 347 354 351 271 244 174 140 75 21 36 46 69 105 75 157 139 116
328 329 331 329 320 310 311 315 313 313 313 310 311 315 298 307 326 342 337 316 291 320 332 334 333 353 344 346 350 212 233 146 134 107 88 49 56 52 55 46 42 115 123
331 328 326 323 323 325 322 317 318 319 320 321 322 328 326 323 342 341 345 338 318 275 301 297 297 338 342 355 356 322 237 124 114 119 115 79 71 54 26 57 58 54 44
331 324 323 323 327 331 328 327 322 328 325 324 329 330 328 340 335 336 339 346 345 327 273 298 333 336 333 332 343 339 126 134 132 146 153 135 119 113 107 71 69 82 71
319 322 325 328 328 330 328 325 324 323 323 322 318 318 315 319 321 321 326 326 328 336 319 320 319 329 320 321 338 348 115 139 159 149 142 119 103 81 105 56 80 44 94
319 317 322 324 325 323 323 320 318 316 306 306 309 305 311 310 311 311 316 313 315 305 308 329 345 1 359 346 336 16 51 130 141 129 132 145 144 110 67 107 110 101 74
320 325 324 321 321 318 316 314 316 321 323 319 314 309 302 301 306 306 307 308 306 318 221 254 294 313 337 341 344 320 4 232 158 139 119 126 154 137 139 115 109 120 109
283 306 317 318 314 316 318 316 318 322 323 323 324 324 319 309 306 302 300 300 298 311 300 212 247 253 244 276 327 325 318 307 152 151 151 154 130 133 129 128 134 113 118
280 291 290 300 303 307 309 310 309 314 319 318 319 319 319 323 317 310 303 301 306 305 307 226 220 231 201 210 232 262 307 327 278 180 151 161 154 135 139 166 181 186 162
300 283 274 285 287 289 295 297 299 301 302 304 313 315 313 319 320 319 322 327 314 306 299 313 249 189 191 186 206 241 285 277 250 200 175 157 159 143 154 166 173 177 138
261 269 272 286 302 304 296 296 299 296 299 298 303 301 309 305 302 285 260 280 292 283 297 301 333 295 207 174 187 215 262 298 263 222 182 170 167 169 162 165 182 147 170
259 269 259 288 286 281 284 287 285 289 291 293 291 294 308 313 322 317 309 291 291 314 321 323 318 305 276 238 174 183 212 259 293 247 181 172 163 168 160 153 167 157 141
243 261 276 265 279 284 278 264 285 289 291 293 296 297 310 308 290 282 286 270 263 266 280 290 301 319 311 261 197 179 202 237 267 264 190 173 166 168 144 148 144 141 140
243 269 271 269 255 272 279 265 272 279 285 288 294 299 302 293 277 270 262 270 252 261 269 272 269 290 296 288 248 196 186 220 230 218 209 181 166 161 152 150 148 125 150
241 250 255 263 274 275 265 280 275 272 276 283 289 289 291 292 288 278 268 264 255 251 258 267 252 247 275 278 278 245 226 268 294 292 226 174 183 172 155 144 160 162 153
239 250 245 254 263 273 280 274 268 271 271 275 285 285 283 281 283 281 267 257 258 249 254 260 261 231 249 255 261 266 263 275 276 301 308 177 190 180 170 156 156 142 124
239 238 244 247 257 259 258 275 276 274 277 282 284 287 286 286 282 279 277 261 255 254 245 255 258 247 241 245 251 255 246 252 261 260 273 257 189 181 166 158 171 159 148